Location: *
(37.5724°S, 58.0067°E)
Time: 11:42:14
(UTC+00:00)

Okean O Rocket - Pass Details

Date: 26 September 2020
Orbit: 622 x 645 km, 98.2° (Epoch: 30 October)

Event Time Altitude Azimuth Distance (km) Brightness Sun altitude
Rises 14:46:00 0° 174° (S) 2,975 5.1 -8.3°
Reaches altitude 10° 14:48:17 10° 179° (S) 2,061 4.3 -8.7°
Maximum altitude 14:52:36 48° 253° (WSW) 847 2.8 -9.6°
Drops below altitude 10° 14:56:54 10° 327° (NNW) 2,045 4.5 -10.4°
Sets 14:59:09 0° 332° (NNW) 2,948 5.3 -10.9°
